Back to catalog

SL-8 R/B

AlivePO
NORAD 10745·ROCKET BODY·🇷🇺 Russia

Launched Mar 28, 1978 from Plesetsk Cosmodrome

Loading…

Next Passes (next 24 hours)

TLE

FreshSource: Space-Track

Epoch: Sep 14, 2026, 06:06 UTC

1 10745U 78031B   26257.25423812  .00000064  00000-0  47672-4 0  9995
2 10745  82.9302 350.3900 0034672 351.1259  37.6522 13.78931645437322

Track SL-8 R/B in real time with AllMySat

Download on the App Store